"Pseudo-MPEC" for P20JFzZ

Created 2018 Oct 12 20:18:13 UT using Find_Orb

Click here for an explanation of pseudo-MPECs

 
 Astrometry: 
     P20JFzZ  C2018 10 10inAstrometry,h_0,V+Gn`o31gKx+LT'8%eqn+^8SE9/fI:3=\PfF52
     P20JFzZ  C2018 10 10IVdh;6vB(!ayW0^oH8n(Q#nT\qrr!^v1IM9:oB;1uLAZuirjK#msF52
     P20JFzZ  C2018 10 10W1/(*(]h$okvB_6k'+VWw6R@.Bkej?v!N$_Vb(41M0S2xm+UJR`oF52
     P20JFzZ  C2018 10 10sIk45]1k2iPB+21`uredacted;IrvHf[#6x/PG\yl!h(8Ss$B#GNF52
     P20JFzZ KC2018 10 1162DP-n]ph?MX=\c?b0tP8f)ekCl.Y$RceeIp.hC@_Z)#Slg'vZmZK88
     P20JFzZ KC2018 10 11E8`h*H!bd(!*QK8sI22)i\bV=^60r\I2see$-ZZJ[DR6(];tVd-BK88
     P20JFzZ KC2018 10 11GI1]1gI$1v:4.ruiRyJQQ:YhUTDta@AdQ%O?YRwjN7X]/.L-Pm_DL01
     P20JFzZ KC2018 10 12L'SZLMuFI_x(h=aA:,I+,nL20Z#s`*:dA`MjyKrhB4c6@2u^si1+L01
     P20JFzZ KC2018 10 12TEH1b;ryD@hsQ;aMO$cIk^-d'rI[=Km54bbjBa4bAW\LrwyNEOCPL01

Station data:
(F52) Pan-STARRS 2, Haleakala  (N20.707384 W156.255910)  US/Hawaii.
(K88) GINOP-KHK, Piszkéstető  (N47.917622 E19.893600)  Hungary.  Observer K.
   Sárneczky. 0.60-m Schmidt + CCD.
(L01) Višnjan Observatory, Tičan  (N45.290900 E13.749300)  Croatia.  Observer
   K. Korlević. 1.0-m f/2.9 reflector + CCD.

Orbital elements:  P20JFzZ
   Perihelion 2018 Mar 27.569613 +/- 29.8 TT = 13:40:14 (JD 2458205.069613)
Epoch 2018 Oct 12.0 TT = JDT 2458403.5   Earth MOID: 0.5478   AutoNEOCP
M  55.52020 +/- 12                  (J2000 ecliptic)
n   0.27979686 +/- 0.0259           Peri.  172.11812 +/- 4.8
a   2.31512343 +/- 0.143            Node   120.10486 +/- 3.7
e   0.3245501 +/- 0.0711            Incl.    7.85287 +/- 0.27
P   3.52                   H 19.2   G  0.15   U 10.3  
q 1.56374969 +/- 0.0662    Q 3.06649717 +/- 0.333
From 9 observations 2018 Oct. 10-12 (36.0 hr); mean residual 0".16
Residuals in arcseconds: 
181010 F52  .08-  .09-    181010 F52  .08-  .12+    181011 L01  .21+  .07-    
181010 F52  .16+  .01+    181011 K88  .25-  .19-    181012 L01  .02+  .22+    
181010 F52  .03+  .05-    181011 K88  .23+  .21+    181012 L01  .22-  .16-    

Ephemerides (geocentric):
Date (UTC) HH   RA              Dec         delta   r     elong  mag " sig PA
---- -- -- --  -------------   -----------  ------ ------ -----  --- ---- ---
2018 10 12 20  02 11 56.089   -02 16 48.03  1.1314 2.1028 161.9 21.7  1.3 160
2018 10 12 21  02 11 53.450   -02 17 03.90  1.1314 2.1030 161.9 21.7  1.3 160
2018 10 12 22  02 11 50.809   -02 17 19.75  1.1315 2.1032 161.9 21.7  1.4 159
2018 10 12 23  02 11 48.168   -02 17 35.59  1.1316 2.1033 162.0 21.7  1.4 159
2018 10 13 00  02 11 45.525   -02 17 51.40  1.1317 2.1035 162.0 21.6  1.5 159
2018 10 13 01  02 11 42.881   -02 18 07.21  1.1318 2.1037 162.0 21.6  1.5 159
2018 10 13 02  02 11 40.236   -02 18 22.99  1.1319 2.1038 162.1 21.6  1.6 159
2018 10 13 03  02 11 37.591   -02 18 38.76  1.1320 2.1040 162.1 21.6  1.7 159
2018 10 13 04  02 11 34.944   -02 18 54.51  1.1320 2.1041 162.1 21.6  1.7 159
2018 10 13 05  02 11 32.296   -02 19 10.24  1.1321 2.1043 162.2 21.6  1.8 159
2018 10 13 06  02 11 29.647   -02 19 25.96  1.1322 2.1045 162.2 21.6  1.8 158
2018 10 13 07  02 11 26.997   -02 19 41.66  1.1323 2.1046 162.2 21.6  1.9 158
2018 10 13 08  02 11 24.346   -02 19 57.34  1.1324 2.1048 162.2 21.6  2.0 158
2018 10 13 09  02 11 21.695   -02 20 13.00  1.1325 2.1049 162.3 21.6  2.0 158
2018 10 13 10  02 11 19.042   -02 20 28.65  1.1326 2.1051 162.3 21.6  2.1 158
2018 10 13 11  02 11 16.388   -02 20 44.28  1.1327 2.1053 162.3 21.6  2.2 158
2018 10 13 12  02 11 13.733   -02 20 59.89  1.1328 2.1054 162.4 21.6  2.3 158
2018 10 13 13  02 11 11.078   -02 21 15.48  1.1329 2.1056 162.4 21.6  2.3 158
2018 10 13 14  02 11 08.421   -02 21 31.05  1.1329 2.1058 162.4 21.6  2.4 158
2018 10 13 15  02 11 05.763   -02 21 46.61  1.1330 2.1059 162.5 21.6  2.5 158
2018 10 13 16  02 11 03.105   -02 22 02.15  1.1331 2.1061 162.5 21.6  2.6 158
2018 10 13 17  02 11 00.445   -02 22 17.67  1.1332 2.1062 162.5 21.6  2.6 158
2018 10 13 18  02 10 57.785   -02 22 33.18  1.1333 2.1064 162.5 21.6  2.7 158
2018 10 13 19  02 10 55.124   -02 22 48.67  1.1334 2.1066 162.6 21.6  2.8 158
2018 10 13 20  02 10 52.461   -02 23 04.13  1.1335 2.1067 162.6 21.6  2.9 158
2018 10 13 21  02 10 49.798   -02 23 19.58  1.1336 2.1069 162.6 21.6  3.0 158
2018 10 13 22  02 10 47.134   -02 23 35.02  1.1337 2.1070 162.7 21.6  3.0 158
2018 10 13 23  02 10 44.469   -02 23 50.43  1.1338 2.1072 162.7 21.6  3.1 158
2018 10 14 00  02 10 41.804   -02 24 05.83  1.1339 2.1074 162.7 21.6  3.2 158
2018 10 14 01  02 10 39.137   -02 24 21.21  1.1340 2.1075 162.7 21.6  3.3 159
2018 10 14 02  02 10 36.470   -02 24 36.57  1.1341 2.1077 162.8 21.6  3.4 159
2018 10 14 03  02 10 33.801   -02 24 51.91  1.1342 2.1079 162.8 21.6  3.5 159
2018 10 14 04  02 10 31.132   -02 25 07.23  1.1343 2.1080 162.8 21.6  3.6 159
2018 10 14 05  02 10 28.462   -02 25 22.54  1.1344 2.1082 162.8 21.6  3.7 159
2018 10 14 06  02 10 25.791   -02 25 37.83  1.1345 2.1083 162.9 21.6  3.8 159
2018 10 14 07  02 10 23.119   -02 25 53.10  1.1346 2.1085 162.9 21.6  3.9 159
2018 10 14 08  02 10 20.447   -02 26 08.35  1.1347 2.1087 162.9 21.6  3.9 159
2018 10 14 09  02 10 17.773   -02 26 23.58  1.1348 2.1088 163.0 21.6  4.0 159
2018 10 14 10  02 10 15.099   -02 26 38.79  1.1349 2.1090 163.0 21.6  4.1 159
2018 10 14 11  02 10 12.424   -02 26 53.99  1.1350 2.1091 163.0 21.6  4.2 159
2018 10 14 12  02 10 09.749   -02 27 09.16  1.1351 2.1093 163.0 21.6  4.3 159
2018 10 14 13  02 10 07.072   -02 27 24.32  1.1352 2.1095 163.1 21.6  4.4 159
2018 10 14 14  02 10 04.395   -02 27 39.46  1.1353 2.1096 163.1 21.6  4.5 159
2018 10 14 15  02 10 01.717   -02 27 54.58  1.1354 2.1098 163.1 21.6  4.7 159
2018 10 14 16  02 09 59.038   -02 28 09.69  1.1355 2.1100 163.1 21.6  4.8 159
2018 10 14 17  02 09 56.358   -02 28 24.77  1.1356 2.1101 163.2 21.6  4.9 159
2018 10 14 18  02 09 53.678   -02 28 39.84  1.1357 2.1103 163.2 21.6  5.0 160
2018 10 14 19  02 09 50.997   -02 28 54.88  1.1358 2.1104 163.2 21.6  5.1 160